TimeEST,TemperatureF,Dew PointF,Humidity,Sea Level PressureIn,VisibilityMPH,Wind Direction,Wind SpeedMPH,Gust SpeedMPH,PrecipitationIn,Events,Conditions,WindDirDegrees,DateUTC
12:17 AM,52.7,49.1,88,29.72,10.0,SSW,16.1,21.9,N/A,Rain,Light Rain,200,2012-11-12 05:17:00
12:36 AM,52.7,49.1,88,29.72,10.0,South,10.4,19.6,N/A,Rain,Light Rain,190,2012-11-12 05:36:00
12:56 AM,52.3,49.1,89,29.73,10.0,SSW,13.8,19.6,N/A,,Light Drizzle,200,2012-11-12 05:56:00
1:17 AM,52.3,49.1,89,29.73,10.0,SSW,12.7,21.9,N/A,,Light Drizzle,200,2012-11-12 06:17:00
1:56 AM,52.2,49.1,89,29.72,10.0,SSW,15.0,23.0,N/A,,Drizzle,210,2012-11-12 06:56:00
2:16 AM,51.8,48.6,89,29.71,3.0,SSW,16.1,26.5,N/A,,Drizzle,210,2012-11-12 07:16:00
2:36 AM,48.2,44.8,88,29.74,3.0,SW,17.3,28.8,N/A,,Drizzle,230,2012-11-12 07:36:00
2:56 AM,46.6,43.0,87,29.74,10.0,SW,17.3,29.9,N/A,,Overcast,230,2012-11-12 07:56:00
3:17 AM,46.4,41.4,83,29.75,10.0,SW,16.1,27.6,N/A,,Overcast,220,2012-11-12 08:17:00
3:36 AM,46.4,41.2,82,29.74,10.0,SW,15.0,20.7,N/A,,Overcast,220,2012-11-12 08:36:00
4:16 AM,45.0,40.1,83,29.73,10.0,SW,15.0,20.7,N/A,Rain,Light Rain,230,2012-11-12 09:16:00
4:36 AM,44.6,39.4,82,29.74,10.0,SW,13.8,20.7,N/A,,Overcast,230,2012-11-12 09:36:00
4:57 AM,44.2,39.6,84,29.76,10.0,SW,15.0,23.0,N/A,,Overcast,230,2012-11-12 09:57:00
5:16 AM,43.5,38.8,84,29.77,10.0,WSW,19.6,25.3,N/A,,Light Drizzle,240,2012-11-12 10:16:00
5:36 AM,42.8,38.8,86,29.75,7.0,WSW,19.6,26.5,N/A,Rain,Light Rain,240,2012-11-12 10:36:00
5:57 AM,41.9,38.3,87,29.78,7.0,WSW,19.6,27.6,N/A,Rain,Light Rain,250,2012-11-12 10:57:00
6:16 AM,41.4,37.9,88,29.80,4.0,WSW,20.7,26.5,N/A,,Overcast,250,2012-11-12 11:16:00
6:37 AM,41.2,37.9,88,29.79,5.0,WSW,18.4,-,N/A,,Drizzle,250,2012-11-12 11:37:00
6:57 AM,40.6,37.0,87,29.80,10.0,WSW,15.0,20.7,N/A,,Overcast,240,2012-11-12 11:57:00
7:37 AM,40.1,34.9,82,29.83,10.0,SW,15.0,21.9,N/A,,Overcast,230,2012-11-12 12:37:00
7:56 AM,39.6,34.2,81,29.82,10.0,SW,13.8,20.7,N/A,,Overcast,230,2012-11-12 12:56:00
8:16 AM,39.2,33.1,79,29.83,10.0,SW,13.8,17.3,N/A,,Overcast,230,2012-11-12 13:16:00
8:37 AM,38.8,32.2,77,29.83,10.0,SW,13.8,18.4,N/A,,Overcast,220,2012-11-12 13:37:00
8:56 AM,38.5,31.6,76,29.84,10.0,SW,11.5,18.4,N/A,,Overcast,230,2012-11-12 13:56:00
9:16 AM,37.8,30.7,76,29.83,10.0,WSW,15.0,19.6,N/A,,Overcast,240,2012-11-12 14:16:00
9:37 AM,37.0,29.7,75,29.83,10.0,WSW,16.1,21.9,N/A,,Overcast,240,2012-11-12 14:37:00
9:56 AM,36.9,30.0,76,29.83,10.0,WSW,20.7,26.5,N/A,,Overcast,240,2012-11-12 14:56:00
10:16 AM,36.5,29.3,75,29.84,10.0,SW,13.8,23.0,N/A,,Overcast,230,2012-11-12 15:16:00
10:56 AM,35.4,27.3,72,29.86,10.0,SW,15.0,24.2,N/A,,Overcast,220,2012-11-12 15:56:00
11:17 AM,34.7,26.6,72,29.86,10.0,WSW,19.6,27.6,N/A,,Overcast,240,2012-11-12 16:17:00
11:37 AM,34.3,27.0,74,29.87,10.0,WSW,15.0,25.3,N/A,,Overcast,240,2012-11-12 16:37:00
11:56 AM,34.7,27.5,75,29.87,10.0,SW,15.0,21.9,N/A,,Overcast,220,2012-11-12 16:56:00
12:17 PM,34.7,26.4,72,29.87,10.0,SW,13.8,25.3,N/A,,Overcast,220,2012-11-12 17:17:00
12:36 PM,34.7,26.6,72,29.86,10.0,WSW,15.0,-,N/A,,Overcast,240,2012-11-12 17:36:00
12:56 PM,34.7,26.8,73,29.86,10.0,WSW,15.0,21.9,N/A,,Overcast,240,2012-11-12 17:56:00
1:36 PM,34.0,23.2,65,29.87,10.0,SW,20.7,27.6,N/A,,Overcast,230,2012-11-12 18:36:00
1:57 PM,33.1,24.6,71,29.87,10.0,WSW,20.7,28.8,N/A,,Overcast,240,2012-11-12 18:57:00
2:16 PM,32.9,24.6,72,29.87,10.0,WSW,20.7,26.5,N/A,,Overcast,240,2012-11-12 19:16:00
2:36 PM,32.7,23.9,70,29.87,10.0,SW,18.4,29.9,N/A,,Overcast,230,2012-11-12 19:36:00
2:57 PM,32.0,23.7,71,29.88,10.0,WSW,19.6,27.6,N/A,,Overcast,240,2012-11-12 19:57:00
3:16 PM,32.0,22.6,68,29.88,10.0,WSW,20.7,27.6,N/A,,Overcast,250,2012-11-12 20:16:00
3:36 PM,32.0,23.4,70,29.89,10.0,WSW,16.1,24.2,N/A,,Overcast,240,2012-11-12 20:36:00
3:57 PM,32.0,22.5,68,29.90,10.0,WSW,26.5,33.4,N/A,,Overcast,240,2012-11-12 20:57:00
4:16 PM,31.8,21.0,64,29.91,10.0,WSW,19.6,27.6,N/A,,Overcast,240,2012-11-12 21:16:00
4:36 PM,32.0,21.7,66,29.91,10.0,WSW,18.4,28.8,N/A,,Overcast,240,2012-11-12 21:36:00
4:57 PM,31.8,22.6,69,29.92,7.0,WSW,16.1,28.8,N/A,Snow,Light Snow,240,2012-11-12 21:57:00
5:16 PM,31.1,23.9,75,29.93,4.0,WSW,23.0,29.9,N/A,Snow,Light Snow,250,2012-11-12 22:16:00
5:37 PM,30.0,24.6,80,29.94,1.8,WSW,17.3,32.2,N/A,Snow,Light Snow,240,2012-11-12 22:37:00
5:56 PM,30.9,22.3,70,29.94,7.0,WSW,27.6,34.5,N/A,Snow,Light Snow,240,2012-11-12 22:56:00
6:16 PM,30.4,22.1,71,29.96,5.0,West,17.3,34.5,N/A,Snow,Light Snow,260,2012-11-12 23:16:00
6:37 PM,30.6,21.2,68,29.97,7.0,WSW,27.6,31.1,N/A,Snow,Light Snow,250,2012-11-12 23:37:00
6:56 PM,29.1,22.6,77,29.98,2.5,WSW,19.6,29.9,N/A,Snow,Light Snow,240,2012-11-12 23:56:00
7:17 PM,29.3,23.9,80,29.98,4.0,West,15.0,23.0,N/A,Snow,Light Snow,260,2012-11-13 00:17:00
7:57 PM,30.6,18.5,61,29.99,10.0,West,17.3,33.4,N/A,Snow,Light Snow,260,2012-11-13 00:57:00
8:16 PM,30.7,16.9,56,30.00,10.0,West,12.7,26.5,N/A,,Overcast,280,2012-11-13 01:16:00
8:36 PM,29.7,19.4,66,30.00,5.0,West,21.9,29.9,N/A,Snow,Light Snow,270,2012-11-13 01:36:00
8:57 PM,29.7,18.5,63,30.01,7.0,West,12.7,28.8,N/A,Snow,Light Snow,270,2012-11-13 01:57:00
9:16 PM,30.2,18.5,62,30.02,7.0,West,20.7,29.9,N/A,Snow,Light Snow,260,2012-11-13 02:16:00
9:36 PM,30.2,15.4,54,30.03,10.0,West,20.7,31.1,N/A,,Overcast,270,2012-11-13 02:36:00
9:57 PM,30.0,14.0,51,30.04,10.0,West,17.3,26.5,N/A,,Scattered Clouds,280,2012-11-13 02:57:00
10:16 PM,30.6,15.1,53,30.05,10.0,West,18.4,26.5,N/A,,Mostly Cloudy,270,2012-11-13 03:16:00
10:37 PM,30.6,16.2,55,30.06,10.0,West,17.3,25.3,N/A,,Overcast,270,2012-11-13 03:37:00
10:56 PM,30.2,15.8,55,30.06,10.0,West,16.1,26.5,N/A,,Scattered Clouds,270,2012-11-13 03:56:00
11:17 PM,31.1,17.4,57,30.07,10.0,West,17.3,28.8,N/A,,Mostly Cloudy,270,2012-11-13 04:17:00
11:37 PM,31.1,17.8,58,30.08,10.0,West,17.3,27.6,N/A,,Scattered Clouds,270,2012-11-13 04:37:00
11:56 PM,31.1,18.7,60,30.09,10.0,West,23.0,32.2,N/A,,Mostly Cloudy,260,2012-11-13 04:56:00